Date String (YYYY-MM-DD hh:mm:ss) UTC,Instrument flags,Ambient pressure (hPa),Sample flow (lpm),Bypass flow (lpm),Sample temperature (°C),Ambient temperature (°C),ASC tube jacket temperature (°C),LED temperature (°C),Box temperature (°C),Sample RH (%),Span deviation,Mass concentration (μg/m³),Mass concentration (μg/m³),Mass concentration (μg/m³)
DateTimeUTC,F1_M11,P_M11,Q1_M11,Q2_M11,T1_M11,T2_M11,T3_M11,T4_M11,T5_M11,U1_M11,ZSPAN_M11,X0_M11,X2_M11,X1_M11
2022-05-03 19:00:00,,0820.8,4.99,0.00,24.3,23.5,00.0,33.1,26.1,21.1,-002.5,0012.95,0009.36,0009.12
2022-05-03 19:01:00,,0820.9,5.01,0.00,24.3,23.5,00.0,33.1,26.1,21.2,-002.5,0013.60,0009.35,0009.13
2022-05-03 19:02:00,,0820.8,4.99,0.00,24.3,23.5,00.0,33.1,26.1,21.3,-002.4,0013.85,0009.36,0009.14
2022-05-03 19:03:00,,0820.8,5.01,0.00,24.3,23.5,00.0,33.1,26.2,21.2,-002.4,0013.82,0009.37,0009.16
2022-05-03 19:04:00,,0820.8,4.99,0.00,24.3,23.5,00.0,33.2,26.2,20.9,-002.2,0013.67,0009.39,0009.22
2022-05-03 19:05:00,,0820.7,5.02,0.00,24.3,23.5,00.0,33.2,26.2,21.0,-002.2,0013.71,0009.47,0009.30
2022-05-03 19:06:00,,0820.7,4.99,0.00,24.3,23.5,00.0,33.2,26.2,20.9,-002.1,0013.78,0009.56,0009.39
2022-05-03 19:07:00,,0820.7,5.01,0.00,24.3,23.5,00.0,33.2,26.2,20.9,-002.3,0013.74,0009.65,0009.46
2022-05-03 19:08:00,,0820.7,4.99,0.00,24.3,23.5,00.0,33.2,26.2,21.2,-002.3,0013.48,0009.70,0009.50
2022-05-03 19:09:00,,0820.6,5.01,0.00,24.3,23.5,00.0,33.2,26.2,20.9,-002.4,0013.47,0009.73,0009.52
2022-05-03 19:10:00,,0820.6,4.99,0.00,24.3,23.5,00.0,33.2,26.2,20.6,-002.2,0013.47,0009.76,0009.55
2022-05-03 19:11:00,,0820.6,5.01,0.00,24.4,23.5,00.0,33.2,26.2,21.0,-002.4,0013.36,0009.77,0009.57
2022-05-03 19:12:00,,0820.6,4.99,0.00,24.4,23.5,00.0,33.2,26.2,21.4,-002.5,0012.58,0009.81,0009.60
2022-05-03 19:13:00,,0820.6,5.00,0.00,24.4,23.6,00.0,33.2,26.2,21.6,-002.5,0012.67,0009.86,0009.62
2022-05-03 19:14:00,,0820.6,5.00,0.00,24.4,23.6,00.0,33.2,26.3,21.4,-002.6,0012.77,0009.88,0009.63
2022-05-03 19:15:00,,0820.6,5.01,0.00,24.4,23.6,00.0,33.3,26.3,21.9,-002.6,0012.80,0009.86,0009.59
2022-05-03 19:16:00,,0820.6,4.99,0.00,24.4,23.6,00.0,33.3,26.3,21.6,-002.5,0012.78,0009.81,0009.53
2022-05-03 19:17:00,,0820.6,5.01,0.00,24.4,23.6,00.0,33.3,26.3,21.2,-002.5,0012.80,0009.76,0009.48
2022-05-03 19:18:00,,0820.6,4.99,0.00,24.4,23.6,00.0,33.3,26.3,21.0,-002.4,0012.72,0009.72,0009.43
2022-05-03 19:19:00,,0820.6,5.01,0.00,24.4,23.6,00.0,33.3,26.3,21.1,-002.4,0012.68,0009.69,0009.41
2022-05-03 19:20:00,,0820.6,4.99,0.00,24.4,23.6,00.0,33.3,26.3,21.1,-002.3,0013.02,0009.68,0009.40
2022-05-03 19:21:00,,0820.5,5.01,0.00,24.4,23.6,00.0,33.3,26.3,21.4,-002.3,0013.31,0009.70,0009.40
2022-05-03 19:22:00,,0820.5,4.99,0.00,24.4,23.6,00.0,33.3,26.3,21.2,-002.4,0013.46,0009.74,0009.42
2022-05-03 19:23:00,,0820.6,5.01,0.00,24.4,23.6,00.0,33.3,26.3,21.0,-002.4,0013.56,0009.77,0009.44
2022-05-03 19:24:00,,0820.6,4.99,0.00,24.4,23.6,00.0,33.3,26.3,20.9,-002.5,0013.42,0009.78,0009.45
2022-05-03 19:25:00,,0820.6,5.02,0.00,24.5,23.7,00.0,33.3,26.4,20.8,-002.5,0013.39,0009.83,0009.50
2022-05-03 19:26:00,,0820.6,4.99,0.00,24.5,23.7,00.0,33.3,26.3,21.1,-002.5,0013.55,0009.87,0009.53
2022-05-03 19:27:00,,0820.6,5.01,0.00,24.5,23.7,00.0,33.3,26.4,21.1,-002.4,0014.33,0009.89,0009.56
2022-05-03 19:28:00,,0820.7,4.99,0.00,24.5,23.7,00.0,33.3,26.3,20.8,-002.4,0014.40,0009.92,0009.59
2022-05-03 19:29:00,,0820.7,5.02,0.00,24.5,23.7,00.0,33.3,26.4,20.8,-002.4,0014.38,0009.92,0009.60
2022-05-03 19:30:00,,0820.6,4.99,0.00,24.5,23.7,00.0,33.4,26.4,21.0,-002.3,0014.44,0009.95,0009.62
2022-05-03 19:31:00,,0820.6,5.01,0.00,24.5,23.7,00.0,33.4,26.4,21.2,-002.3,0014.15,0009.97,0009.64
2022-05-03 19:32:00,,0820.6,4.99,0.00,24.5,23.7,00.0,33.4,26.3,21.2,-002.3,0013.89,0009.95,0009.62
2022-05-03 19:33:00,,0820.6,4.99,0.00,24.6,23.7,00.0,33.4,26.4,20.8,-002.3,0013.81,0009.94,0009.61
2022-05-03 19:34:00,,0820.6,5.01,0.00,24.6,23.7,00.0,33.4,26.5,20.7,-002.2,0013.80,0009.92,0009.58
2022-05-03 19:35:00,,0820.6,4.99,0.00,24.6,23.7,00.0,33.4,26.5,20.7,-002.0,0013.88,0009.91,0009.55
2022-05-03 19:36:00,,0820.5,5.00,0.00,24.6,23.8,00.0,33.4,26.4,20.7,-001.9,0013.80,0009.85,0009.49
2022-05-03 19:37:00,,0820.6,5.00,0.00,24.6,23.8,00.0,33.4,26.4,20.7,-001.8,0014.07,0009.78,0009.44
2022-05-03 19:38:00,,0820.6,5.01,0.00,24.6,23.8,00.0,33.4,26.4,20.8,-001.9,0013.54,0009.75,0009.40
2022-05-03 19:39:00,,0820.5,4.99,0.00,24.6,23.8,00.0,33.5,26.5,20.6,-002.0,0013.26,0009.70,0009.36
2022-05-03 19:40:00,,0820.5,5.01,0.00,24.6,23.8,00.0,33.5,26.5,20.5,-002.0,0013.31,0009.66,0009.31
2022-05-03 19:41:00,,0820.5,4.99,0.00,24.6,23.8,00.0,33.5,26.5,20.6,-001.9,0014.07,0009.63,0009.28
2022-05-03 19:42:00,,0820.5,5.01,0.00,24.6,23.8,00.0,33.5,26.5,20.7,-001.9,0014.51,0009.64,0009.26
2022-05-03 19:43:00,,0820.4,4.99,0.00,24.7,23.8,00.0,33.5,26.5,20.9,-001.8,0014.78,0009.61,0009.25
2022-05-03 19:44:00,,0820.3,5.01,0.00,24.7,23.9,00.0,33.5,26.5,21.0,-001.8,0014.76,0009.61,0009.26
2022-05-03 19:45:00,,0820.3,4.99,0.00,24.7,23.9,00.0,33.5,26.6,20.7,-001.7,0014.75,0009.62,0009.27
2022-05-03 19:46:00,,0820.5,5.00,0.00,24.7,23.9,00.0,33.5,26.6,20.5,-001.7,0014.69,0009.63,0009.32
2022-05-03 19:47:00,,0820.4,4.99,0.00,24.7,23.9,00.0,33.5,26.6,20.5,-001.7,0014.66,0009.67,0009.37
2022-05-03 19:48:00,,0820.4,5.01,0.00,24.7,23.9,00.0,33.6,26.6,20.5,-001.9,0014.30,0009.72,0009.43
2022-05-03 19:49:00,,0820.3,5.00,0.00,24.7,23.9,00.0,33.6,26.6,20.6,-002.0,0014.40,0009.80,0009.50
2022-05-03 19:50:00,,0820.3,4.99,0.00,24.7,23.9,00.0,33.6,26.6,20.5,-002.0,0014.80,0009.87,0009.54
2022-05-03 19:51:00,,0820.3,5.01,0.00,24.7,23.9,00.0,33.6,26.6,20.5,-002.0,0014.85,0009.94,0009.59
2022-05-03 19:52:00,,0820.3,4.99,0.00,24.7,23.9,00.0,33.6,26.6,20.6,-002.1,0014.19,0010.00,0009.62
2022-05-03 19:53:00,,0820.3,5.00,0.00,24.7,23.9,00.0,33.6,26.6,20.7,-002.2,0013.87,0010.02,0009.63
2022-05-03 19:54:00,,0820.3,5.00,0.00,24.8,23.9,00.0,33.6,26.6,20.6,-002.3,0013.56,0010.04,0009.65
2022-05-03 19:55:00,,0820.3,4.99,0.00,24.8,23.9,00.0,33.6,26.6,20.3,-002.3,0013.65,0010.06,0009.65
2022-05-03 19:56:00,,0820.3,5.00,0.00,24.8,23.9,00.0,33.6,26.6,20.5,-002.3,0013.70,0010.09,0009.65
2022-05-03 19:57:00,,0820.3,5.01,0.00,24.8,23.9,00.0,33.6,26.7,20.5,-002.3,0013.69,0010.07,0009.63
2022-05-03 19:58:00,,0820.2,4.99,0.00,24.8,23.9,00.0,33.6,26.6,20.4,-002.2,0013.69,0010.06,0009.60
2022-05-03 19:59:00,,0820.1,5.01,0.00,24.8,23.9,00.0,33.6,26.7,20.4,-002.2,0013.66,0010.05,0009.58
